Weather in Kuka

Russia / Zabaykalsky Krai     51°47′48″N   112°55′45″E
temp.,
°C
wind,
m/s
gust,
m/s
humid.,
%
clouds,
%
prec.,
mm/h
press.,
hPa
HPBL,
m
8 august, mon
mon800:00+9w26705 0.0 1010162
03:00+8w310760 0.0 1010356
06:00+7w28800 0.0 1010272
09:00+13wnw510558 0.0 1009926
12:00+18nw694493 0.0 10071638
15:00+21nw7103597 0.0 10052697
18:00+20nw5114047 0.0 10052372
21:00+15nw26590 0.0 1006127
9 august, tue
tue900:00+10wnw22785 0.0 100827
03:00+8w22870 0.0 101023
06:00+7w21920 0.0 101023
09:00+15wnw38590 0.0 1008761
12:00+20nw58382 0.0 10061883
15:00+23nw59285 0.0 10042585
18:00+23nw58265 0.0 10032758
21:00+15nnw22550 0.0 100523
10 august, wed
wed1000:00+11nnw22680 0.0 100821
03:00+9wnw11720 0.0 100815
06:00+7w11770 0.0 100913
09:00+15wnw12490 0.0 1008348
12:00+21nw24340 0.0 10061691
15:00+23nw35295 0.0 10042416
18:00+23nnw35275 0.0 10032242
21:00+15n11530 0.0 100511
11 august, thu
thu1100:00+12ene1163100 0.0 100711
03:00+11ene0170100 0.0 100710
06:00+9n118257 0.0 100810
09:00+16nw01593 0.0 1008382
12:00+22wnw12355 0.0 10061453
15:00+24wnw3326100 0.0 10042311
18:00+24wnw352691 0.0 10032769
21:00+16sw1151100 0.0 100311
12 august, fri
fri1200:00+14wnw226683 0.1 100427
03:00+11wsw11915 1.0 100513
06:00+9wsw23930 0.0 100555
09:00+15wnw410740 0.0 1004771
12:00+20nw454335 0.0 10041993
15:00+21nnw473668 0.0 10031939
18:00+22n463753 0.0 10031535
21:00+15n1262100 0.0 100512